Flag for U.S.A. Weather past 2 weeks in Jacksonville, North Carolina, U.S.A.

Now
43 °F

Partly cloudy.


Feels Like: 37 °F
Forecast: 45 / 62 °F
Wind: 10 mph from North

Location: Jacksonville - New River


UV Index: 0 (Low)

Visibility: N/A


Pressure: 30.38 "Hg

Humidity: 93%

Dew point: 41 °F

Location of JacksonvilleLocation

Historic Weather in Jacksonville

°F

Jacksonville temperature yesterday

Maximum temperature yesterday: 66 °F (at 2:56 PM)
Minimum temperature yesterday: 37 °F (at 5:56 AM)
Average temperature yesterday: 52 °F

Past Weeks' High & Low Weather Summary

 TemperatureHumidityPressure
High85 °F (Apr 4, 12:56 PM)100% (Apr 4, 4:56 AM)30.50 "Hg (Apr 4, 4:56 AM)
Low37 °F (Apr 17, 5:56 AM)25% (Apr 4, 12:56 PM)29.57 "Hg (Apr 8, 3:59 PM)
Average63 °F71%30.05 "Hg
* Reported Apr 3 5:56 AM — Apr 18 5:56 AM, Jacksonville, Weather by CustomWeather, © 2014

Note: Actual official high and low records may vary slightly from our data, if they occured in-between our weather recording intervals... More about our weather records

Advertising

Historic Weather Conditions — Data for Previous 24 hours

 ConditionsComfort  
Time TempWeatherWind HumidityBarometerVisibility
5:56 AM
Apr 18
44 °FPassing clouds.8 mph93%30.38 "HgN/A
4:56 AM44 °FMostly cloudy.12 mph93%30.38 "HgN/A
3:56 AM44 °FLow clouds.12 mph93%30.39 "HgN/A
2:56 AM44 °FPassing clouds.10 mph93%30.39 "HgN/A
1:56 AM45 °FClear.10 mph90%30.40 "HgN/A
12:56 AM46 °FClear.9 mph86%30.42 "HgN/A
11:56 PM
Apr 17
48 °FClear.10 mph80%30.45 "HgN/A
10:56 PM50 °FPassing clouds.10 mph77%30.45 "HgN/A
9:56 PM54 °FPartly cloudy.14 mph69%30.44 "HgN/A
8:56 PM56 °FMostly cloudy.10 mph65%30.44 "HgN/A
7:56 PM57 °FSunny.14 mph64%30.41 "HgN/A
6:56 PM62 °FPartly sunny.13 mph54%30.40 "HgN/A
5:56 PM65 °FSunny.12 mph51%30.42 "HgN/A
4:56 PM66 °FSunny.12 mph49%30.42 "HgN/A
3:56 PM66 °FScattered clouds.14 mph49%30.43 "HgN/A
2:56 PM66 °FPassing clouds.10 mph49%30.45 "HgN/A
1:56 PM64 °FSunny.15 mph49%30.46 "HgN/A
12:56 PM61 °FSunny.14 mph54%30.47 "HgN/A
11:56 AM59 °FSunny.7 mph56%30.50 "HgN/A
10:56 AM56 °FSunny.13 mph60%30.50 "HgN/A
9:56 AM51 °FSunny.16 mph63%30.50 "HgN/A
8:56 AM46 °FSunny.12 mph73%30.47 "HgN/A
7:56 AM40 °FSunny.9 mph83%30.47 "HgN/A
Weather by CustomWeather, © 2014

See weather overview